13P/Olbers (2024)

Japanese version
Home page
Updated on April 13, 2024

---------------------------------------------------------------------

* Profile

Recovery Date August 13, 2023
Magnitude 21.6 mag
Recoverer A. Hale (Las Cumbres Observatory)

* Pictures

* Orbital Elements

Epoch 2024 Mar. 31.0 TT = JDT 2460400.5
T 2024 June 30.04684 TT                                 Rudenko
q   1.1755340            (2000.0)            P               Q
n   0.01420742     Peri.   64.41313     -0.60851355     -0.37167570
a  16.8833724      Node    85.84690     +0.18562278     -0.92568696
e   0.9303733      Incl.   44.66540     +0.77152799     -0.07043310
P  69.4
>From 1151 observations 2023 Aug. 13-2024 Mar. 19, mean residual 0".5.
     Nongravitational parameters A1 = +1.71, A2 = +0.5618.

* Finding Charts

* Magnitudes Graph

        m1 = 4.5 + 5 log d + 22.0 log r  [ ,0]  (             - 2024 June 29)
        m1 = 5.0 + 5 log d + 15.0 log r  [0, ]  (2024 June 29 -             )

---------------------------------------------------------------------

The orbital elements are published on M.P.E.C. 2024-F34.
The charts are made with StellaNavigator Ver.10 (AstroArts).
The magnitudes graphs are made with Comet for Windows.

---------------------------------------------------------------------

Copyright(C) Seiichi Yoshida (comet@aerith.net). All rights reserved.